This is the latest recevied weather packets stored in our database for station/object SA7NOA-14. If no packets are shown the sender has not sent any weather packets the latest 10 day(s).
| Time | Temp. | Humidity | Pressure | Rain* | Wind** | Luminosity | Snow |
|---|---|---|---|---|---|---|---|
| 1788186604 | 18.33° C | 72% | 1007.9 hPa | 0.25 mm | - | - | - |
| 1788185701 | 20° C | 72% | 1007.9 hPa | 0.25 mm | - | - | - |
| 1788184800 | 21.67° C | 72% | 1007.9 hPa | 0.25 mm | - | - | - |
| 1788182102 | 18.89° C | 68% | 1007.9 hPa | 0.25 mm | - | - | - |
| 1788180300 | 18.33° C | 68% | 1007.9 hPa | 0.25 mm | - | - | - |
| 1788179404 | 18.89° C | 65% | 1007.8 hPa | 0.25 mm | - | - | - |
| 1788178503 | 18.89° C | 65% | 1007.8 hPa | 0.25 mm | - | - | - |
| 1788177603 | 18.89° C | 65% | 1007.8 hPa | 0.25 mm | - | - | - |
| 1788176702 | 19.44° C | 65% | 1007.8 hPa | 0.25 mm | - | - | - |
| 1788175801 | 20.56° C | 63% | 1007.7 hPa | 0.25 mm | - | - | - |
| 1788174905 | 21.11° C | 63% | 1007.7 hPa | 0.25 mm | - | - | - |
| 1788174004 | 20.56° C | 63% | 1007.7 hPa | 0.25 mm | - | - | - |
| 1788173103 | 19.44° C | 63% | 1007.7 hPa | 0.25 mm | - | - | - |
| 1788172202 | 20° C | 68% | 1007.9 hPa | 0.25 mm | - | - | - |
| 1788171301 | 20° C | 68% | 1007.9 hPa | 0.25 mm | - | - | - |
| 1788170400 | 18.89° C | 68% | 1007.9 hPa | 0.25 mm | - | - | - |
| 1788169504 | 18.33° C | 68% | 1007.9 hPa | 0.51 mm | - | - | - |
| 1788168603 | 17.78° C | 75% | 1008.3 hPa | 0.51 mm | - | - | - |
| 1788167702 | 17.78° C | 75% | 1008.3 hPa | 0.51 mm | - | - | - |
| 1788166801 | 18.33° C | 75% | 1008.3 hPa | 0.51 mm | - | - | - |
| 1788165901 | 17.78° C | 75% | 1008.3 hPa | 0.76 mm | - | - | - |
| 1788165004 | 17.22° C | 78% | 1008.2 hPa | 0.76 mm | - | - | - |
| 1788164103 | 17.22° C | 78% | 1008.2 hPa | 0.76 mm | - | - | - |
| 1788163202 | 16.67° C | 78% | 1008.2 hPa | 0.76 mm | - | - | - |
| 1788162302 | 16.11° C | 78% | 1008.2 hPa | 1.02 mm | - | - | - |
* Rain latest 24 hours (hover to see other rain measurements)
** Current wind speed in m/s (hover to see current wind gust speed)